This is the latest recevied weather packets stored in our database for station/object KB0BS-13. If no packets are shown the sender has not sent any weather packets the latest 10 day(s).
| Time | Temp. | Humidity | Pressure | Rain* | Wind** | Luminosity | Snow |
|---|---|---|---|---|---|---|---|
| 1777772159 | 3.33° C | 64% | 1014.8 hPa | 0 mm | - | 0 W/m² | - |
| 1777771856 | 3.33° C | 63% | 1014.7 hPa | 0 mm | - | 0 W/m² | - |
| 1777771554 | 3.89° C | 61% | 1014.4 hPa | 0 mm | - | 0 W/m² | - |
| 1777771250 | 3.89° C | 60% | 1014.6 hPa | 0 mm | - | 0 W/m² | - |
| 1777770946 | 3.89° C | 59% | 1014.6 hPa | 0 mm | - | 0 W/m² | - |
| 1777770644 | 3.89° C | 58% | 1014.5 hPa | 0 mm | - | 0 W/m² | - |
| 1777770340 | 4.44° C | 57% | 1014.6 hPa | 0 mm | - | 0 W/m² | - |
| 1777770038 | 4.44° C | 57% | 1014.5 hPa | 0 mm | - | 1 W/m² | - |
| 1777769735 | 5° C | 57% | 1014.6 hPa | 0 mm | - | 1 W/m² | - |
| 1777769432 | 5° C | 55% | 1014.6 hPa | 0 mm | - | 3 W/m² | - |
| 1777769128 | 5° C | 55% | 1014.6 hPa | 0 mm | - | 4 W/m² | - |
| 1777768826 | 5.56° C | 53% | 1014.6 hPa | 0 mm | - | 6 W/m² | - |
| 1777768523 | 5.56° C | 51% | 1014.6 hPa | 0 mm | - | 8 W/m² | - |
| 1777768220 | 5.56° C | 51% | 1014.6 hPa | 0 mm | - | 11 W/m² | - |
| 1777767917 | 6.11° C | 51% | 1014.5 hPa | 0 mm | - | 14 W/m² | - |
| 1777767614 | 6.67° C | 49% | 1014.5 hPa | 0 mm | - | 17 W/m² | - |
| 1777767310 | 6.67° C | 46% | 1014.5 hPa | 0 mm | - | 20 W/m² | - |
| 1777767008 | 6.67° C | 40% | 1014.6 hPa | 0 mm | - | 23 W/m² | - |
| 1777766705 | 6.67° C | 37% | 1014.5 hPa | 0 mm | - | 25 W/m² | - |
| 1777766402 | 7.78° C | 44% | 1014.7 hPa | 0 mm | - | 29 W/m² | - |
| 1777766098 | 7.78° C | 34% | 1014.5 hPa | 0 mm | - | 33 W/m² | - |
| 1777765796 | 7.78° C | 34% | 1014.7 hPa | 0 mm | - | 37 W/m² | - |
| 1777765492 | 7.22° C | 38% | 1014.8 hPa | 0 mm | - | 42 W/m² | - |
| 1777765190 | 7.22° C | 38% | 1014.6 hPa | 0 mm | - | 46 W/m² | - |
| 1777764885 | 7.22° C | 36% | 1014.7 hPa | 0 mm | - | 52 W/m² | - |
* Rain latest hour (hover to see other rain measurements)
** Current wind speed in m/s (hover to see current wind gust speed)